DW2633 Weather Reports


time (UTC)temp
F
wind
direction
speed
knots
gust
knots
rain 1hr
in
rain 24hr
in
rain mn
in
humidity
%
barometer
mb
20260509162526 46 223 0.9 0.0 0.00 0.00 0.00 94 1010.1
20260509162026 46 157 1.7 0.0 0.00 0.00 0.00 95 1010.0
20260509161525 46 144 5.2 0.0 0.00 0.00 0.00 95 1010.0
20260509161024 46 138 7.8 0.0 0.00 0.00 0.00 94 1010.1
20260509160524 45 150 9.6 0.0 0.00 0.00 0.00 95 1010.2
20260509160024 45 138 7.8 0.0 0.00 0.00 0.00 94 1010.2
20260509155521 45 137 7.0 0.0 0.00 0.00 0.00 94 1010.3
20260509155021 45 146 6.1 0.0 0.00 0.00 0.00 94 1010.6
20260509154520 45 136 3.5 0.0 0.00 0.00 0.00 94 1010.6
20260509154018 44 196 0.9 0.0 0.00 0.00 0.00 93 1010.9
20260509153518 44 178 0.9 0.0 0.00 0.00 0.00 93 1010.9
20260509153029 44 244 0.9 0.0 0.00 0.00 0.00 93 1010.9
20260509152518 44 159 0.9 0.0 0.00 0.00 0.00 94 1010.9
20260509152017 44 146 0.9 0.0 0.00 0.00 0.00 93 1010.8
20260509151516 44 198 0.0 0.0 0.00 0.00 0.00 93 1010.8
20260509151020 44 215 0.9 0.0 0.00 0.00 0.00 93 1011.0
20260509150516 44 215 0.9 0.0 0.00 0.00 0.00 93 1011.0
20260509150016 44 153 1.7 0.0 0.00 0.00 0.00 93 1011.0
20260509145516 44 136 1.7 0.0 0.00 0.00 0.00 93 1010.9
20260509145016 44 118 1.7 0.0 0.00 0.00 0.00 93 1011.0
20260509144516 44 230 1.7 0.0 0.00 0.00 0.00 92 1011.1
20260509144015 44 199 2.6 0.0 0.00 0.00 0.00 92 1010.9
20260509143522 44 137 2.6 0.0 0.00 0.00 0.00 93 1010.9
20260509143018 44 148 0.9 0.0 0.00 0.00 0.00 93 1010.9
20260509142514 44 157 0.9 0.0 0.00 0.00 0.00 92 1010.9
20260509142014 44 156 1.7 0.0 0.00 0.00 0.00 92 1011.0
20260509141514 44 161 0.9 0.0 0.00 0.00 0.00 92 1010.9
20260509141018 44 139 0.9 0.0 0.00 0.00 0.00 93 1010.9
20260509140515 44 186 0.9 0.0 0.00 0.00 0.00 93 1010.9
20260509140015 44 147 1.7 0.0 0.00 0.00 0.00 92 1010.9
20260509135513 44 154 1.7 0.0 0.00 0.00 0.00 92 1010.9
20260509135014 44 140 0.9 0.0 0.00 0.00 0.00 92 1010.9
20260509134512 44 148 0.9 0.0 0.00 0.00 0.00 92 1010.9
20260509134011 43 215 0.0 0.0 0.00 0.00 0.00 91 1010.9
20260509133510 43 215 0.0 0.0 0.00 0.00 0.00 91 1011.0
20260509133010 43 215 0.0 0.0 0.00 0.00 0.00 90 1011.2
20260509132510 43 215 0.0 0.0 0.00 0.00 0.00 90 1011.2
20260509132010 43 219 0.0 0.0 0.00 0.00 0.00 90 1011.3
20260509131510 43 219 0.0 0.0 0.00 0.00 0.00 90 1011.3
20260509131010 43 219 0.0 0.0 0.00 0.00 0.00 89 1011.3
20260509130512 43 192 0.0 0.0 0.00 0.00 0.00 89 1011.2
20260509130030 43 140 0.0 0.0 0.00 0.00 0.00 89 1011.2
20260509125510 43 219 0.0 0.0 0.00 0.00 0.00 88 1011.2
20260509125009 43 209 0.0 0.0 0.00 0.00 0.00 87 1011.1
20260509124525 43 217 0.0 0.0 0.00 0.00 0.00 88 1011.2
20260509124008 43 217 1.7 0.0 0.00 0.00 0.00 87 1011.1
20260509123508 43 133 1.7 0.0 0.00 0.00 0.00 87 1011.1
20260509123010 43 108 0.9 0.0 0.00 0.00 0.00 87 1011.2
20260509122505 43 187 0.9 0.0 0.00 0.00 0.00 87 1011.1
20260509122006 43 134 1.7 0.0 0.00 0.00 0.00 86 1011.1
20260509121504 43 142 0.9 0.0 0.00 0.00 0.00 86 1011.3
20260509121004 42 147 0.9 0.0 0.00 0.00 0.00 85 1011.3
20260509120503 42 119 1.7 0.0 0.00 0.00 0.00 85 1011.3
20260509120007 42 54 1.7 0.0 0.00 0.00 0.00 85 1011.3
20260509115501 42 57 1.7 0.0 0.00 0.00 0.00 85 1011.7
20260509115005 41 53 1.7 0.0 0.00 0.00 0.00 86 1011.7
20260509114501 41 101 1.7 0.0 0.00 0.00 0.00 86 1011.7
20260509114100 41 101 1.7 0.0 0.00 0.00 0.00 85 1011.8
20260509113600 41 93 1.7 0.0 0.00 0.00 0.00 86 1011.8
20260509113134 41 92 1.7 0.0 0.00 0.00 0.00 86 1011.7
20260509112600 41 86 2.6 0.0 0.00 0.00 0.00 87 1011.7
20260509112058 41 98 4.3 0.0 0.00 0.00 0.00 88 1011.8
20260509111557 40 53 4.3 0.0 0.00 0.00 0.00 90 1011.8
20260509111056 39 26 3.5 0.0 0.00 0.00 0.00 93 1011.9
20260509110554 37 5 0.9 0.0 0.00 0.00 0.00 94 1011.9
20260509110059 36 134 0.9 0.0 0.00 0.00 0.00 93 1011.7
20260509105551 36 138 1.7 0.0 0.00 0.00 0.00 92 1011.6
20260509105052 36 138 0.9 0.0 0.00 0.00 0.00 92 1011.3
20260509104551 35 137 0.0 0.0 0.00 0.00 0.00 92 1011.3
20260509104050 35 137 0.0 0.0 0.00 0.00 0.00 92 1011.4
20260509103549 35 137 1.7 0.0 0.00 0.00 0.00 92 1011.3
20260509103050 35 138 3.5 0.0 0.00 0.00 0.00 92 1011.2
20260509102548 35 135 3.5 0.0 0.00 0.00 0.00 92 1011.1
20260509102047 35 126 3.5 0.0 0.00 0.00 0.00 92 1011.2
20260509101558 35 139 3.5 0.0 0.00 0.00 0.00 92 1011.4
20260509101047 34 136 3.5 0.0 0.00 0.00 0.00 92 1011.5
20260509100546 34 133 2.6 0.0 0.00 0.00 0.00 92 1011.5
20260509100046 34 135 0.9 0.0 0.00 0.00 0.00 92 1011.5
20260509095546 34 136 0.9 0.0 0.00 0.00 0.00 91 1011.6
20260509095046 34 136 1.7 0.0 0.00 0.00 0.00 91 1011.7
20260509094546 34 128 1.7 0.0 0.00 0.00 0.00 92 1011.5
20260509094045 34 128 2.6 0.0 0.00 0.00 0.00 92 1011.3
20260509093545 34 127 2.6 0.0 0.00 0.00 0.00 92 1011.5
20260509093046 33 360 2.6 0.0 0.00 0.00 0.00 92 1011.4
20260509092545 33 360 2.6 0.0 0.00 0.00 0.00 92 1011.6
20260509092044 33 360 2.6 0.0 0.00 0.00 0.00 92 1011.7
20260509091545 33 360 3.5 0.0 0.00 0.00 0.00 92 1011.7
20260509091045 33 360 3.5 0.0 0.00 0.00 0.00 92 1011.7
20260509090544 32 360 3.5 0.0 0.00 0.00 0.00 92 1011.7
20260509090045 32 360 2.6 0.0 0.00 0.00 0.00 92 1011.8
20260509085543 32 360 2.6 0.0 0.00 0.00 0.00 92 1011.9
20260509085047 32 360 2.6 0.0 0.00 0.00 0.00 91 1011.7
20260509084544 32 360 2.6 0.0 0.00 0.00 0.00 91 1011.7
20260509084043 32 360 2.6 0.0 0.00 0.00 0.00 91 1011.7
20260509083545 32 360 2.6 0.0 0.00 0.00 0.00 91 1011.7
20260509083044 32 360 2.6 0.0 0.00 0.00 0.00 91 1011.7
20260509082541 31 360 3.5 0.0 0.00 0.00 0.00 90 1011.8
20260509082041 32 360 4.3 0.0 0.00 0.00 0.00 90 1011.7
20260509081541 32 145 3.5 0.0 0.00 0.00 0.00 90 1011.7
20260509081043 32 138 3.5 0.0 0.00 0.00 0.00 90 1011.6
20260509080541 32 136 3.5 0.0 0.00 0.00 0.00 90 1011.5
20260509080044 32 154 3.5 0.0 0.00 0.00 0.00 89 1011.4
20260509075538 32 138 3.5 0.0 0.00 0.00 0.00 89 1011.5
20260509075038 32 138 3.5 0.0 0.00 0.00 0.00 89 1011.4
20260509074539 32 141 3.5 0.0 0.00 0.00 0.00 89 1011.4
20260509074040 32 142 4.3 0.0 0.00 0.00 0.00 89 1011.4
20260509073536 32 143 4.3 0.0 0.00 0.00 0.00 89 1011.3
20260509073041 32 144 4.3 0.0 0.00 0.00 0.00 88 1011.4
20260509072538 33 144 3.5 0.0 0.00 0.00 0.00 89 1011.3
20260509072036 33 360 3.5 0.0 0.00 0.00 0.00 89 1011.3
20260509071533 33 360 2.6 0.0 0.00 0.00 0.00 89 1011.3
20260509071031 33 360 1.7 0.0 0.00 0.00 0.00 89 1011.4
20260509070531 33 360 1.7 0.0 0.00 0.00 0.00 88 1011.4
20260509070031 33 360 2.6 0.0 0.00 0.00 0.00 88 1011.4
20260509065531 33 360 1.7 0.0 0.00 0.00 0.00 88 1011.4
20260509065030 33 360 1.7 0.0 0.00 0.00 0.00 88 1011.4
20260509064530 34 360 1.7 0.0 0.00 0.00 0.00 88 1011.3
20260509064032 34 360 2.6 0.0 0.00 0.00 0.00 88 1011.3
20260509063529 34 360 2.6 0.0 0.00 0.00 0.00 87 1011.5
20260509063034 34 360 2.6 0.0 0.00 0.00 0.00 87 1011.5
20260509062527 34 360 2.6 0.0 0.00 0.00 0.00 88 1011.6
20260509062027 34 360 2.6 0.0 0.00 0.00 0.00 88 1011.7
20260509061530 34 360 2.6 0.0 0.00 0.00 0.00 87 1011.9
20260509061026 34 360 2.6 0.0 0.00 0.00 0.00 88 1012.0
20260509060526 34 360 2.6 0.0 0.00 0.00 0.00 89 1011.9
20260509060026 34 360 2.6 0.0 0.00 0.00 0.00 89 1012.0
20260509055525 34 360 2.6 0.0 0.00 0.00 0.00 89 1012.0
20260509055025 34 360 2.6 0.0 0.00 0.00 0.00 91 1012.0
20260509054524 34 360 1.7 0.0 0.00 0.00 0.00 90 1012.0
20260509054027 33 360 1.7 0.0 0.00 0.00 0.00 88 1012.1
20260509053523 33 360 2.6 0.0 0.00 0.00 0.00 88 1012.1
20260509053023 33 360 2.6 0.0 0.00 0.00 0.00 88 1012.2
20260509052523 33 360 2.6 0.0 0.00 0.00 0.00 88 1012.2
20260509052022 33 360 2.6 0.0 0.00 0.00 0.00 87 1012.3
20260509051523 33 360 2.6 0.0 0.00 0.00 0.00 87 1012.3
20260509051021 34 360 2.6 0.0 0.00 0.00 0.00 87 1012.3
20260509050522 34 360 2.6 0.0 0.00 0.00 0.00 86 1012.3
20260509050025 34 360 2.6 0.0 0.00 0.00 0.00 86 1012.2
20260509045518 34 360 2.6 0.0 0.00 0.00 0.00 86 1012.1
20260509045018 34 360 2.6 0.0 0.00 0.00 0.00 86 1012.2
20260509044517 34 360 1.7 0.0 0.00 0.00 0.00 87 1012.2
20260509044016 34 360 1.7 0.0 0.00 0.00 0.00 87 1012.1
20260509043515 34 360 2.6 0.0 0.00 0.00 0.00 86 1012.1
20260509043014 34 360 3.5 0.0 0.00 0.00 0.00 85 1012.0
20260509042514 34 360 3.5 0.0 0.00 0.00 0.00 86 1011.9
20260509042013 34 360 3.5 0.0 0.00 0.00 0.00 85 1011.8
20260509041519 34 360 3.5 0.0 0.00 0.00 0.00 85 1011.8
20260509041012 35 360 3.5 0.0 0.00 0.00 0.00 85 1011.8
20260509040514 35 360 3.5 0.0 0.00 0.00 0.00 85 1011.8
20260509040010 35 360 3.5 0.0 0.00 0.00 0.00 85 1011.8
20260509035509 35 360 4.3 0.0 0.00 0.00 0.00 85 1011.7
20260509035009 35 360 3.5 0.0 0.00 0.00 0.00 84 1011.7
20260509034509 35 360 3.5 0.0 0.00 0.00 0.00 84 1011.7
20260509034012 36 360 4.3 0.0 0.00 0.00 0.00 84 1011.6
20260509033508 36 360 4.3 0.0 0.00 0.00 0.00 83 1011.6
20260509033009 36 139 4.3 0.0 0.00 0.00 0.00 83 1011.5
20260509032508 36 140 4.3 0.0 0.00 0.00 0.00 83 1011.5
20260509032007 36 137 4.3 0.0 0.00 0.00 0.00 83 1011.5
20260509031521 36 138 4.3 0.0 0.00 0.00 0.00 82 1011.5
20260509031008 37 137 4.3 0.0 0.00 0.00 0.00 82 1011.5
20260509030508 37 138 4.3 0.0 0.00 0.00 0.00 82 1011.6
20260509030009 37 134 5.2 0.0 0.00 0.00 0.00 82 1011.6
20260509025507 37 136 5.2 0.0 0.00 0.00 0.00 81 1011.7
20260509025006 37 136 4.3 0.0 0.00 0.00 0.00 80 1011.7
20260509024506 38 138 4.3 0.0 0.00 0.00 0.00 79 1011.6
20260509024006 38 142 4.3 0.0 0.00 0.00 0.00 78 1011.5
20260509023506 38 142 4.3 0.0 0.00 0.00 0.00 79 1011.5
20260509023005 39 142 4.3 0.0 0.00 0.00 0.00 78 1011.5
20260509022504 39 142 3.5 0.0 0.00 0.00 0.00 77 1011.5
20260509022005 39 139 3.5 0.0 0.00 0.00 0.00 77 1011.5
20260509021506 40 136 3.5 0.0 0.00 0.00 0.00 76 1011.4
20260509021004 40 136 3.5 0.0 0.00 0.00 0.00 74 1011.3
20260509020503 41 139 2.6 0.0 0.00 0.00 0.00 75 1011.4
20260509020003 41 125 2.6 0.0 0.00 0.00 0.00 73 1011.4
20260509015505 41 142 3.5 0.0 0.00 0.00 0.00 72 1011.4
20260509015003 42 147 3.5 0.0 0.00 0.00 0.00 71 1011.3
20260509014505 42 150 2.6 0.0 0.00 0.00 0.00 71 1011.3
20260509014102 43 197 1.7 0.0 0.00 0.00 0.00 71 1011.2
20260509013600 43 214 0.9 0.0 0.00 0.00 0.00 71 1011.1
20260509013103 44 214 0.0 0.0 0.00 0.00 0.00 70 1011.1
20260509012600 44 214 0.9 0.0 0.00 0.00 0.00 69 1011.1
20260509012059 45 214 0.9 0.0 0.00 0.00 0.00 68 1011.0
20260509011559 46 214 0.9 0.0 0.00 0.00 0.00 68 1011.0
20260509011058 46 217 1.7 0.0 0.00 0.00 0.00 67 1010.8
20260509010557 47 225 4.3 0.0 0.00 0.00 0.00 65 1010.6
20260509005556 47 245 8.7 0.0 0.00 0.00 0.00 66 1010.4
20260509005057 48 256 7.8 0.0 0.00 0.00 0.00 64 1010.3
20260509004608 48 271 8.7 0.0 0.00 0.00 0.00 64 1010.2
20260509004058 48 261 9.6 0.0 0.00 0.00 0.00 63 1010.2
20260509003559 48 256 10.4 0.0 0.00 0.00 0.00 62 1010.1
20260509003102 48 265 11.3 0.0 0.00 0.00 0.00 63 1010.1
20260509002555 48 259 11.3 0.0 0.00 0.00 0.00 63 1010.1
20260509002056 49 265 12.2 0.0 0.00 0.00 0.00 63 1010.0
20260509001555 49 267 12.2 0.0 0.00 0.00 0.00 62 1009.9
20260509001055 49 269 12.2 0.0 0.00 0.00 0.00 64 1009.8
20260509000554 49 263 11.3 0.0 0.00 0.00 0.00 63 1009.8
20260509000054 49 271 11.3 0.0 0.00 0.00 0.00 60 1009.9
20260508235555 49 251 11.3 0.0 0.00 0.00 0.00 60 1009.8
20260508235056 50 261 10.4 0.0 0.00 0.00 0.00 63 1009.8
20260508234557 50 258 9.6 0.0 0.00 0.00 0.00 60 1009.7
20260508234055 50 266 9.6 0.0 0.00 0.00 0.00 61 1009.8
20260508233555 50 268 10.4 0.0 0.00 0.00 0.00 63 1009.8
20260508233057 50 274 11.3 0.0 0.00 0.00 0.00 61 1009.8
20260508232553 50 271 13.0 0.0 0.00 0.00 0.00 61 1009.8
20260508232057 50 277 13.0 0.0 0.00 0.00 0.00 61 1009.6
20260508231558 50 275 11.3 0.0 0.00 0.00 0.00 61 1009.6
20260508231053 50 294 8.7 0.0 0.00 0.00 0.00 60 1009.6
20260508230552 50 277 8.7 0.0 0.00 0.00 0.00 61 1009.6
20260508230124 50 283 10.4 0.0 0.00 0.00 0.00 59 1009.6
20260508225553 50 278 11.3 0.0 0.00 0.00 0.00 62 1009.5
20260508225055 50 280 13.0 0.0 0.00 0.00 0.00 63 1009.6
20260508224601 50 290 14.8 0.0 0.00 0.00 0.00 62 1009.5
20260508224052 51 275 13.9 0.0 0.00 0.00 0.00 60 1009.5
20260508223552 51 285 12.2 0.0 0.00 0.00 0.00 62 1009.4
20260508223052 51 290 12.2 0.0 0.00 0.00 0.00 60 1009.5
20260508222552 51 256 12.2 0.0 0.00 0.00 0.00 63 1009.4
20260508222052 51 269 11.3 0.0 0.00 0.00 0.00 62 1009.4
20260508221552 51 267 10.4 0.0 0.00 0.00 0.00 62 1009.3
20260508221051 51 263 10.4 0.0 0.00 0.00 0.00 61 1009.4
20260508220552 51 253 10.4 0.0 0.00 0.00 0.00 61 1009.4
20260508220117 51 258 11.3 0.0 0.00 0.00 0.00 64 1009.4
20260508215551 51 265 12.2 0.0 0.00 0.00 0.00 64 1009.4
20260508215051 51 273 12.2 0.0 0.00 0.00 0.00 63 1009.4
20260508214556 52 259 12.2 0.0 0.00 0.00 0.00 61 1009.4
20260508214050 52 271 9.6 0.0 0.00 0.00 0.00 62 1009.4
20260508213550 52 263 7.8 0.0 0.00 0.00 0.00 62 1009.4
20260508213054 52 246 9.6 0.0 0.00 0.00 0.00 63 1009.6
20260508212550 51 244 10.4 0.0 0.00 0.00 0.00 64 1009.6
20260508212050 51 251 11.3 0.0 0.00 0.00 0.00 66 1009.5
20260508211552 50 262 11.3 0.0 0.00 0.00 0.00 66 1009.5
20260508211050 50 286 11.3 0.0 0.00 0.00 0.00 65 1009.6
20260508210550 50 280 12.2 0.0 0.00 0.00 0.00 68 1009.5
20260508210050 50 290 13.0 0.0 0.00 0.00 0.00 68 1009.5
20260508205549 49 252 13.9 0.0 0.00 0.00 0.00 67 1009.5
20260508205049 49 283 16.5 0.0 0.00 0.00 0.00 66 1009.6
20260508204600 49 292 18.2 0.0 0.00 0.00 0.00 68 1009.5
20260508204051 49 281 15.6 0.0 0.00 0.00 0.00 66 1009.5
20260508203548 48 294 10.4 0.0 0.00 0.00 0.00 70 1009.4
20260508203049 48 289 4.3 0.0 0.00 0.00 0.00 73 1009.4
20260508202548 47 330 2.6 0.0 0.00 0.00 0.00 75 1009.3
20260508202050 47 31 1.7 0.0 0.00 0.00 0.00 70 1009.3
20260508201549 47 30 3.5 0.0 0.00 0.00 0.00 73 1009.3
20260508201048 47 17 4.3 0.0 0.00 0.00 0.00 73 1009.3
20260508200548 47 28 5.2 0.0 0.00 0.00 0.00 75 1009.3
20260508200050 46 13 7.8 0.0 0.00 0.00 0.00 77 1009.4
20260508195547 46 15 9.6 0.0 0.00 0.00 0.00 76 1009.4
20260508195047 46 360 10.4 0.0 0.00 0.00 0.00 77 1009.6
20260508194547 46 355 11.3 0.0 0.00 0.00 0.00 76 1009.7
20260508194048 47 360 12.2 0.0 0.00 0.00 0.00 74 1009.8
20260508193547 49 355 12.2 0.0 0.00 0.00 0.00 68 1009.7
20260508193052 53 345 13.0 0.0 0.00 0.00 0.00 57 1009.7
20260508192549 55 248 14.8 0.0 0.00 0.00 0.00 56 1009.3
20260508192045 56 252 14.8 0.0 0.00 0.00 0.00 58 1009.1
20260508191547 56 223 15.6 0.0 0.00 0.00 0.00 58 1009.2
20260508191045 56 193 17.4 0.0 0.00 0.00 0.00 59 1009.1
20260508190545 56 207 16.5 0.0 0.00 0.00 0.00 58 1009.1
20260508190058 56 217 16.5 0.0 0.00 0.00 0.00 58 1009.0
20260508185544 56 255 16.5 0.0 0.00 0.00 0.00 65 1008.9
20260508185046 56 261 16.5 0.0 0.00 0.00 0.00 62 1008.9
20260508184549 56 227 15.6 0.0 0.00 0.00 0.00 59 1008.9
20260508184045 55 236 14.8 0.0 0.00 0.00 0.00 63 1009.0
20260508183542 55 236 13.9 0.0 0.00 0.00 0.00 66 1009.1
20260508183044 55 236 13.9 0.0 0.00 0.00 0.00 63 1009.2
20260508182539 54 246 13.0 0.0 0.00 0.00 0.00 70 1009.2
20260508182039 54 220 12.2 0.0 0.00 0.00 0.00 66 1009.2
20260508181553 53 242 14.8 0.0 0.00 0.00 0.00 68 1009.3
20260508181037 53 242 14.8 0.0 0.00 0.00 0.00 69 1009.3
20260508180538 53 246 13.9 0.0 0.00 0.00 0.00 64 1009.3
20260508180038 53 231 13.9 0.0 0.00 0.00 0.00 66 1009.3
20260508175536 52 252 13.9 0.0 0.00 0.00 0.00 66 1009.3
20260508175038 52 253 14.8 0.0 0.00 0.00 0.00 67 1009.3
20260508174545 52 248 13.0 0.0 0.00 0.00 0.00 67 1009.4
20260508174035 52 238 13.9 0.0 0.00 0.00 0.00 66 1009.5
20260508173535 52 246 14.8 0.0 0.00 0.00 0.00 64 1009.6
20260508173035 52 247 13.9 0.0 0.00 0.00 0.00 64 1009.6
20260508172535 52 254 11.3 0.0 0.00 0.00 0.00 65 1009.7
20260508172035 52 217 11.3 0.0 0.00 0.00 0.00 62 1009.6
20260508171535 52 221 12.2 0.0 0.00 0.00 0.00 61 1009.8
20260508171037 52 251 12.2 0.0 0.00 0.00 0.00 63 1009.8
20260508170534 52 245 13.9 0.0 0.00 0.00 0.00 60 1009.9
20260508170035 52 241 15.6 0.0 0.00 0.00 0.00 62 1009.9
20260508165537 52 247 15.6 0.0 0.00 0.00 0.00 61 1009.9
20260508165034 53 232 12.2 0.0 0.00 0.00 0.00 60 1010.0
20260508164533 53 256 8.7 0.0 0.00 0.00 0.00 57 1010.0
20260508164034 53 248 9.6 0.0 0.00 0.00 0.00 58 1010.0
20260508163535 53 238 13.0 0.0 0.00 0.00 0.00 62 1009.9
20260508163038 53 259 16.5 0.0 0.00 0.00 0.00 64 1010.0